Weather Roundup
Issued by NWS

Home | Current Version | Previous Version | Text Only | Print | Product List | Glossary On
Versions: 1 2 3 4 5 6 7 8 9 10 11 12 13 14 15 16 17 18 19 20 21 22 23 24 25 26 27 28 29 30 31 32 33 34 35 36 37 38 39 40 41 42 43 44 45 46 47 48 49 50
000
NZUS93 KARX 271010
HRRWXR

CURRENT HOURLY OBSERVATIONS ACROSS
MUCH OF THE UPPER MISSISSIPPI VALLEY
NATIONAL WEATHER SERVICE LA CROSSE WI
400 AM CST THU NOV 27 2014


...SOUTHEAST MINNESOTA...


CITY           SKY/WX    TMP DP  RH WIND       PRES   REMARKS
ROCHESTER      CLEAR      6  -2  69 N14       30.37R WCI -11
ROCHESTER/MAYO FAIR       8  -1  66 NW10G17   30.38R WCI  -7
WINONA         MOCLDY    18  10  73 NW15G21   30.39R WCI   3
AUSTIN         CLEAR      3  -4  72 NW10      30.39R WCI -12
ALBERT LEA     PTCLDY     0  -6  78 W7        30.42R WCI -13
DODGE CENTER   PTCLDY     1  -2  85 NW10      30.37S WCI -14
PRESTON        FLURRIES   9   6  84 N9        30.36R WCI  -4
OWATONNA       PTCLDY    -6 -11  77 W7        30.42S WCI -20
FARIBAULT      PTCLDY     0  -6  78 NW6       30.44R WCI -12
$$

...ELSEWHERE IN MINNESOTA...


CITY           SKY/WX    TMP DP  RH WIND       PRES   REMARKS
MINNEAPOLIS    CLEAR      2  -5  72 N13       30.47R WCI -15
INTNL FALLS    MOCLDY   -15 -21  74 CALM      30.46R
DULUTH         CLEAR     -7 -12  79 NW6       30.39R WCI -20
RED WING         N/A      7  -2  66 N7        30.44R WCI  -5
REDWOOD FALLS  PTCLDY    -5  -9  83 NW9       30.51S WCI -22
MANKATO        MOCLDY    -6 -11  77 NW8       30.46R WCI -21
WORTHINGTON    MOCLDY    -6 -11  77 NW9       30.45F WCI -22
FAIRMONT       PTCLDY    -4  -9  77 NW15      30.44S WCI -25
$$

...SOUTHWEST WISCONSIN...


CITY           SKY/WX    TMP DP  RH WIND       PRES   REMARKS
LA CROSSE      CLOUDY    20  13  74 N12       30.36R WCI   8
PRAIRIE DU CHI CLOUDY    23  16  75 NW9       30.34R WCI  13
BOSCOBEL       CLOUDY    25  17  72 NW6       30.33R WCI  18
LONE ROCK      CLOUDY    27  18  69 NW9       30.30R WCI  18
PLATTEVILLE    CLOUDY    24  21  89 CALM      30.30R
FORT MC COY    CLOUDY    18  13  81 NW12      30.34R WCI   6
CAMP DOUGLAS   FLURRIES  18  18  99 NW10      30.30S WCI   7
VIROQUA        PTSUNNY   18  14  84 NW16      30.28R WCI   3
WIS DELLS      LGT SNOW  22  18  87 NW5       30.27R WCI  15
$$

...ELSEWHERE IN WISCONSIN...


CITY           SKY/WX    TMP DP  RH WIND       PRES   REMARKS
MILWAUKEE      LGT SNOW  24  19  81 NW9       30.22S WCI  14
MADISON        CLOUDY    23  18  81 NW7       30.26S WCI  15
GREEN BAY      FLURRIES  24  18  77 NW7       30.24R WCI  16
EAU CLAIRE     PTCLDY     6  -2  69 NW13      30.39R WCI -10
BLACK RVR FLS  CLOUDY    17  11  77 NW9       30.34R WCI   6
MEDFORD        FLURRIES  11   6  81 NW14      30.27S WCI  -5
WAUSAU         FLURRIES  14  10  84 NW9       30.25R WCI   2
WIS RAPIDS     CLOUDY    17  10  74 NW8       30.29S WCI   7
MARSHFIELD     CLOUDY    15   9  76 NW16      30.27S WCI  -1
RICE LAKE      CLEAR      1  -4  77 NW6       30.41S WCI -10
$$

...NORTHEAST IOWA...


CITY           SKY/WX    TMP DP  RH WIND       PRES   REMARKS
DECORAH        FLURRIES  18  14  86 NW17      30.33R WCI   2
MASON CITY     CLEAR      0  -5  79 NW15      30.43R WCI -19
CHARLES CITY   CLOUDY    10   5  79 NW13G20   30.39R WCI  -5
OELWEIN        CLOUDY    18  12  79 NW17      30.36R WCI   2
$$

...ELSEWHERE IN IOWA...


CITY           SKY/WX    TMP DP  RH WIND       PRES   REMARKS
DES MOINES     FLURRIES  16   9  74 NW15      30.46R WCI   1
IOWA CITY      CLOUDY    25  20  81 NW12      30.38R WCI  14
FORT DODGE     PTCLDY     1  -8  66 NW6       30.48R WCI -10
$$

...NORTHERN ILLINOIS...


CITY           SKY/WX    TMP DP  RH WIND       PRES   REMARKS
CHICAGO-OHARE  CLOUDY    23  17  78 NW10      30.23R WCI  12
CHICAGO-MIDWAY CLOUDY    26  18  71 NW12      30.23R WCI  16
MOLINE         CLOUDY    26  20  77 NW10      30.34R WCI  16
ROCKFORD       CLOUDY    20  16  84 NW9       30.29R FOG     WCI   9
PEORIA         CLOUDY    25  19  78 NW7       30.32R WCI  17
$$

NOTE: "FAIR" INDICATES FEW OR NO CLOUDS BELOW 12,000 FEET WITH NO
SIGNIFICANT WEATHER AND/OR OBSTRUCTIONS TO VISIBILITY. WIND
SPEEDS ARE IN MILES-PER-HOUR.



USA.gov is the U.S. government's official web portal to all federal, state and local government web resources and services.